Weather History for Hollywood, FL

Change the Weather History Date:

Thursday, June 27, 2013

  Actual Average (KFLL) Record (KFLL)
Temperature  
Mean Temperature 84 °F 84 °F  
Max Temperature 89 °F 89 °F 95 °F (1950)
Min Temperature 79 °F 78 °F 66 °F (1935)
Degree Days  
Heating Degree Days 0 0  
Month to date heating degree days 0  
Since 1 June heating degree days 0  
Since 1 July heating degree days 112  
Cooling Degree Days 18 18  
Month to date cooling degree days 483  
Year to date cooling degree days 1901  
Since 1 June cooling degree days 483  
Growing Degree Days 34 (Base 50)    
Moisture  
Dew Point 73 °F    
Average Humidity 73    
Maximum Humidity 84    
Minimum Humidity 57    
Precipitation  
Precipitation 0.00 in 0.36 in 1.37 in (2005)
Month to date precipitation 9.10  
Year to date precipitation 26.59  
Snow  
Snow 0.00 in - - ()
Month to date snowfall  
Since 1 June snowfall  
Since 1 July snowfall  
Snow Depth -    
Sea Level Pressure  
Sea Level Pressure 30.04 in    
Wind  
Wind Speed 6 mph (SE)    
Max Wind Speed 13 mph    
Max Gust Speed -    
Visibility 10 miles    
Events      
T = Trace of Precipitation, MM = Missing Value Source: NWS Daily Summary

Daily Weather History Graph

Daily Weather History Graph

Search for Another Location

Airport:

Trip Planner

Search our weather history database for the weather conditions in past years. The results will help you decide how hot, cold, wet, or windy it might be!

Date:

Astronomy

Jun. 27, 2013 Rise Set
Actual Time 6:31 AM EDT 8:16 PM EDT
Civil Twilight 6:05 AM EDT 8:42 PM EDT
Nautical Twilight 5:33 AM EDT 9:14 PM EDT
Astronomical Twilight 5:00 AM EDT 9:47 PM EDT
Moon 11:45 PM EDT (6/27) 11:01 AM EDT (6/27)
Length of Visible Light 14h 37m
Length of Day
13h 45m
Waning Gibbous, 76% of the Moon is Illuminated
Jun 27
Waning Gibbous
Jun 30
Last Quarter
Jul 8
New
Jul 15
First Quarter
Jul 22
Full

Hourly Weather History & Observations

Time (EDT) Temp. Heat Index Dew Point Humidity Pressure Visibility Wind Dir Wind Speed Gust Speed Precip Events Conditions
12:53 AM 82.0 °F 87.4 °F 73.0 °F 74% 30.05 in 10.0 mi ESE 6.9 mph - N/A   Partly Cloudy
1:53 AM 82.0 °F 87.9 °F 73.9 °F 76% 30.03 in 10.0 mi SE 4.6 mph - N/A   Partly Cloudy
2:53 AM 81.0 °F 86.2 °F 73.9 °F 79% 30.02 in 10.0 mi ESE 4.6 mph - N/A   Clear
3:53 AM 80.1 °F 84.5 °F 73.9 °F 81% 30.03 in 10.0 mi East 4.6 mph - N/A   Clear
4:53 AM 80.1 °F 84.5 °F 73.9 °F 81% 30.02 in 10.0 mi SE 4.6 mph - N/A   Clear
5:53 AM 80.1 °F 84.5 °F 73.9 °F 81% 30.03 in 10.0 mi SSE 3.5 mph - N/A   Clear
6:53 AM 79.0 °F - 73.9 °F 84% 30.03 in 10.0 mi ENE 3.5 mph - N/A   Clear
7:49 AM 82.4 °F 89.5 °F 75.2 °F 79% 30.05 in 10.0 mi SSW 3.5 mph - N/A   Mostly Cloudy
7:53 AM 82.0 °F 87.9 °F 73.9 °F 76% 30.06 in 10.0 mi SW 3.5 mph - N/A   Mostly Cloudy
8:53 AM 82.9 °F 89.4 °F 73.9 °F 74% 30.07 in 10.0 mi Calm Calm - N/A   Scattered Clouds
9:14 AM 80.6 °F 85.4 °F 73.4 °F 79% 30.07 in 10.0 mi SSE 9.2 mph - N/A   Mostly Cloudy
9:23 AM 82.4 °F 88.2 °F 73.4 °F 74% 30.07 in 10.0 mi SSE 8.1 mph - N/A   Scattered Clouds
9:53 AM 82.9 °F 88.8 °F 73.0 °F 72% 30.07 in 10.0 mi SSW 9.2 mph - N/A   Scattered Clouds
10:53 AM 86.0 °F 92.2 °F 72.0 °F 63% 30.07 in 10.0 mi Variable 5.8 mph - N/A   Scattered Clouds
11:53 AM 87.1 °F 95.4 °F 73.9 °F 65% 30.07 in 10.0 mi NE 6.9 mph - N/A   Partly Cloudy
12:53 PM 88.0 °F 93.8 °F 71.1 °F 57% 30.06 in 10.0 mi ENE 11.5 mph - N/A   Partly Cloudy
1:53 PM 87.1 °F 92.8 °F 71.1 °F 59% 30.04 in 10.0 mi SE 12.7 mph - N/A   Scattered Clouds
2:53 PM 84.9 °F 90.7 °F 72.0 °F 65% 30.04 in 10.0 mi SE 8.1 mph - N/A   Clear
3:53 PM 82.0 °F 87.4 °F 73.0 °F 74% 30.02 in 10.0 mi WSW 6.9 mph - N/A   Partly Cloudy
4:53 PM 84.9 °F 93.3 °F 75.0 °F 72% 30.00 in 10.0 mi SSE 5.8 mph - 0.00 in   Scattered Clouds
5:53 PM 84.9 °F 91.4 °F 73.0 °F 67% 30.01 in 10.0 mi SE 5.8 mph - N/A   Mostly Cloudy
6:13 PM 84.2 °F 90.9 °F 73.4 °F 70% 30.01 in 10.0 mi ESE 9.2 mph - N/A   Scattered Clouds
6:53 PM 84.0 °F 90.2 °F 73.0 °F 69% 30.01 in 10.0 mi East 5.8 mph - N/A   Clear
7:53 PM 82.9 °F 89.4 °F 73.9 °F 74% 29.99 in 10.0 mi ESE 8.1 mph - N/A   Clear
8:53 PM 82.0 °F 87.4 °F 73.0 °F 74% 30.00 in 10.0 mi SE 4.6 mph - N/A   Clear
9:53 PM 81.0 °F 86.2 °F 73.9 °F 79% 30.01 in 10.0 mi SSE 3.5 mph - N/A   Clear
10:53 PM 81.0 °F 86.2 °F 73.9 °F 79% 30.02 in 10.0 mi Calm Calm - N/A   Clear
11:53 PM 81.0 °F 86.2 °F 73.9 °F 79% 30.03 in 10.0 mi Calm Calm - N/A   Partly Cloudy